Weather History for Santa Barbara, CA

Change the Weather History Date:

Thursday, December 15, 2011

  Actual Average Record
Temperature  
Mean Temperature 49 °F 52 °F  
Max Temperature 61 °F 63 °F 82 °F (1942)
Min Temperature 36 °F 40 °F 27 °F (1967)
Degree Days  
Heating Degree Days 16 13  
Month to date heating degree days 223 189  
Since 1 July heating degree days 780 667  
Cooling Degree Days 0 0  
Month to date cooling degree days 0 0  
Year to date cooling degree days 105 188  
Moisture  
Dew Point 40 °F    
Average Humidity 71    
Maximum Humidity 93    
Minimum Humidity 48    
Precipitation  
Precipitation 0.01 in 0.09 in 1.27 in (2008)
Month to date precipitation 1.09 1.13  
Year to date precipitation 19.53 15.95  
Since 1 July precipitation 4.97 3.90  
Sea Level Pressure  
Sea Level Pressure 30.13 in    
Wind  
Wind Speed 4 mph (ENE)    
Max Wind Speed 14 mph    
Max Gust Speed 20 mph    
Visibility 10 miles    
Events Rain    
T = Trace of Precipitation, MM = Missing Value Source: NWS Daily Summary

Daily Weather History Graph

Daily Weather History Graph

Search for Another Location

Airport:

Trip Planner

Search our weather history database for the weather conditions in past years. The results will help you decide how hot, cold, wet, or windy it might be!

Date:

Astronomy

Dec. 15, 2011 Rise Set
Actual Time 6:58 AM PST 4:50 PM PST
Civil Twilight 6:30 AM PST 5:18 PM PST
Nautical Twilight 5:59 AM PST 5:49 PM PST
Astronomical Twilight 5:28 AM PST 6:20 PM PST
Moon 10:10 PM PST (12/15) 10:27 AM PST (12/15)
Length of Visible Light 10h 48m
Length of Day
9h 52m
Waning Gibbous, 73% of the Moon is Illuminated
Dec 15
Waning Gibbous
Dec 17
Last Quarter
Dec 24
New
Dec 31
First Quarter
Jan 8
Full

Hourly Weather History & Observations

Time (PST) Temp. Windchill Dew Point Humidity Pressure Visibility Wind Dir Wind Speed Gust Speed Precip Events Conditions
12:53 AM 39.0 °F - 37.9 °F 96% 30.24 in 9.0 mi Calm Calm - N/A   Clear
1:53 AM 39.9 °F 36.7 °F 37.9 °F 93% 30.20 in 10.0 mi ESE 4.6 mph - N/A   Clear
2:53 AM 39.0 °F - 37.9 °F 96% 30.21 in 10.0 mi Calm Calm - N/A   Clear
3:53 AM 39.2 °F - 37.4 °F 93% 30.20 in 10.0 mi Calm Calm - N/A   Clear
4:53 AM 37.9 °F - 36.0 °F 93% 30.19 in 10.0 mi Calm Calm - N/A   Clear
5:53 AM 37.4 °F 33.8 °F 35.6 °F 93% 30.18 in 10.0 mi SE 4.6 mph - N/A   Clear
6:53 AM 39.0 °F 35.7 °F 36.0 °F 89% 30.16 in 10.0 mi NNE 4.6 mph - N/A   Clear
7:53 AM 43.0 °F 41.3 °F 39.9 °F 89% 30.17 in 9.0 mi WSW 3.5 mph - N/A   Clear
8:53 AM 53.1 °F - 43.0 °F 69% 30.17 in 10.0 mi East 8.1 mph - N/A   Clear
9:53 AM 55.9 °F - 46.0 °F 69% 30.17 in 10.0 mi SE 5.8 mph - N/A   Scattered Clouds
10:53 AM 57.0 °F - 45.0 °F 64% 30.14 in 10.0 mi SSE 8.1 mph - N/A   Scattered Clouds
11:53 AM 57.0 °F - 44.1 °F 62% 30.11 in 10.0 mi ENE 8.1 mph - N/A   Mostly Cloudy
12:53 PM 55.4 °F - 42.8 °F 63% 30.08 in 10.0 mi West 4.6 mph - N/A Rain Light Rain
1:53 PM 60.1 °F - 41.0 °F 49% 30.05 in 10.0 mi NW 11.5 mph - 0.00 in   Mostly Cloudy
2:53 PM 59.0 °F - 43.0 °F 55% 30.04 in 10.0 mi WNW 10.4 mph - N/A   Clear
3:53 PM 59.0 °F - 43.0 °F 55% 30.04 in 10.0 mi WNW 6.9 mph - N/A   Clear
4:53 PM 55.0 °F - 45.0 °F 69% 30.05 in 10.0 mi ESE 5.8 mph - N/A   Clear
5:53 PM 53.1 °F - 45.0 °F 74% 30.06 in 10.0 mi Variable 5.8 mph - N/A   Clear
6:53 PM 51.1 °F - 43.0 °F 74% 30.08 in 10.0 mi Calm Calm - N/A   Clear
7:53 PM 45.0 °F - 41.0 °F 86% 30.09 in 10.0 mi Calm Calm - N/A   Clear
8:53 PM 41.0 °F - 37.0 °F 86% 30.11 in 10.0 mi Calm Calm - N/A   Clear
9:53 PM 48.9 °F - 34.0 °F 56% 30.10 in 10.0 mi Calm Calm - N/A   Clear
10:53 PM 51.1 °F - 32.0 °F 48% 30.11 in 10.0 mi NNE 6.9 mph - N/A   Clear
11:53 PM 50.0 °F - 32.0 °F 50% 30.10 in 10.0 mi North 4.6 mph - N/A   Clear